SA3PJN-WX Weather Reports


time (UTC)temp
F
wind
direction
speed
knots
gust
knots
rain 1hr
in
rain 24hr
in
rain mn
in
humidity
%
barometer
mb
20260504022945 34 262 1.7 3.5 0.00 0.00 0.00 73 957.0
20260504022445 34 310 2.6 4.3 0.00 0.00 0.00 73 957.0
20260504021945 35 309 2.6 5.2 0.00 0.00 0.00 72 957.0
20260504021445 35 29 2.6 5.2 0.00 0.00 0.00 72 957.0
20260504020945 35 60 1.7 4.3 0.00 0.00 0.00 71 957.0
20260504020445 35 4 0.9 3.5 0.00 0.00 0.00 71 957.1
20260504015945 35 278 0.9 2.6 0.00 0.00 0.00 70 957.2
20260504015445 35 336 1.7 3.5 0.00 0.00 0.00 70 957.2
20260504014915 35 19 1.7 3.5 0.00 0.00 0.00 70 957.3
20260504014415 35 7 1.7 3.5 0.00 0.00 0.00 69 957.3
20260504013845 35 6 1.7 4.3 0.00 0.00 0.00 69 957.3
20260504013345 35 12 1.7 4.3 0.00 0.00 0.00 69 957.4
20260504012845 35 18 0.9 4.3 0.00 0.00 0.00 68 957.5
20260504012315 36 38 0.9 2.6 0.00 0.00 0.00 67 957.4
20260504011815 36 83 1.7 2.6 0.00 0.00 0.00 67 957.6
20260504011315 36 40 1.7 3.5 0.00 0.00 0.00 68 957.6
20260504010815 36 22 1.7 3.5 0.00 0.00 0.00 68 957.6
20260504010315 36 335 1.7 3.5 0.00 0.00 0.00 68 957.5
20260504005815 36 318 1.7 3.5 0.00 0.00 0.00 68 958.0
20260504005315 35 279 1.7 4.3 0.00 0.00 0.00 68 958.0
20260504004815 35 273 1.7 5.2 0.00 0.00 0.00 69 957.6
20260504004315 35 257 2.6 5.2 0.00 0.00 0.00 70 958.0
20260504003815 35 299 2.6 5.2 0.00 0.00 0.00 69 958.0
20260504003245 35 291 3.5 5.2 0.00 0.00 0.00 69 958.0
20260504002745 35 293 3.5 5.2 0.00 0.00 0.00 69 958.0
20260504002245 35 294 3.5 5.2 0.00 0.00 0.00 69 958.0
20260504001744 35 304 3.5 6.1 0.00 0.00 0.00 68 958.1
20260504001214 35 313 3.5 7.8 0.00 0.00 0.00 68 958.2
20260504000645 35 285 3.5 7.8 0.00 0.00 0.00 68 958.2
20260504000144 35 294 3.5 7.0 0.00 0.00 0.00 68 958.1
20260503235644 35 282 3.5 7.0 0.00 0.00 0.00 68 958.2
20260503235144 36 293 3.5 7.0 0.00 0.00 0.00 67 958.4
20260503234644 35 288 3.5 6.1 0.00 0.00 0.00 68 958.4
20260503234144 35 290 3.5 6.1 0.00 0.00 0.00 68 958.4
20260503233614 35 291 3.5 6.1 0.00 0.00 0.00 67 958.6
20260503233114 36 258 4.3 7.0 0.00 0.00 0.00 68 959.0
20260503232614 36 290 4.3 7.0 0.00 0.00 0.00 68 959.0
20260503232114 36 265 4.3 7.0 0.00 0.00 0.00 67 959.0
20260503231614 36 285 5.2 9.6 0.00 0.00 0.00 67 959.0
20260503231044 36 274 5.2 9.6 0.00 0.00 0.00 67 959.0
20260503230544 36 259 5.2 8.7 0.00 0.00 0.00 67 959.0
20260503230044 36 281 4.3 8.7 0.00 0.00 0.00 67 959.0
20260503225514 36 272 5.2 9.6 0.00 0.00 0.00 66 959.0
20260503224944 37 291 6.1 9.6 0.00 0.00 0.00 66 959.1
20260503224444 37 292 6.1 9.6 0.00 0.00 0.00 65 959.1
20260503223944 37 275 5.2 7.8 0.00 0.00 0.00 65 959.2
20260503223444 37 296 5.2 8.7 0.00 0.00 0.00 66 959.4
20260503222944 37 266 5.2 8.7 0.00 0.00 0.00 66 959.4
20260503222414 37 249 5.2 8.7 0.00 0.00 0.00 65 959.5
20260503221914 37 281 5.2 9.6 0.00 0.00 0.00 65 959.5
20260503221414 37 284 5.2 9.6 0.00 0.00 0.00 64 959.5
20260503220914 37 262 4.3 9.6 0.00 0.00 0.00 64 960.0
20260503220344 37 260 5.2 10.4 0.00 0.00 0.00 64 960.1
20260503215844 37 251 5.2 10.4 0.00 0.00 0.00 64 960.0
20260503215344 38 251 5.2 7.8 0.00 0.00 0.00 63 960.0
20260503214844 38 250 4.3 7.8 0.00 0.00 0.00 63 960.1
20260503214344 38 247 4.3 7.8 0.00 0.00 0.00 63 960.1
20260503213844 38 242 4.3 9.6 0.00 0.00 0.00 62 960.2
20260503213344 38 272 4.3 9.6 0.00 0.00 0.00 62 960.2
20260503212844 38 288 4.3 8.7 0.00 0.00 0.00 62 960.1
20260503212344 38 294 4.3 7.0 0.00 0.00 0.00 63 960.2
20260503211844 38 247 4.3 7.0 0.00 0.00 0.00 63 960.2
20260503211314 38 283 4.3 7.0 0.00 0.00 0.00 61 960.3
20260503210814 38 274 3.5 6.1 0.00 0.00 0.00 62 960.3
20260503210244 38 291 3.5 7.0 0.00 0.00 0.00 61 960.4
20260503205744 38 310 3.5 7.0 0.00 0.00 0.00 61 960.3
20260503205243 38 299 3.5 6.1 0.00 0.00 0.00 61 960.4
20260503204743 38 296 3.5 6.1 0.00 0.00 0.00 62 960.4
20260503204243 38 291 3.5 6.1 0.00 0.00 0.00 61 960.5
20260503203743 38 317 3.5 6.1 0.00 0.00 0.00 60 960.6
20260503203243 39 297 3.5 6.1 0.00 0.00 0.00 60 961.0
20260503202743 39 284 3.5 6.1 0.00 0.00 0.00 61 961.0
20260503202243 39 283 3.5 6.1 0.00 0.00 0.00 60 961.0
20260503201743 39 342 3.5 7.0 0.00 0.00 0.00 60 961.0
20260503201243 39 294 3.5 7.0 0.00 0.00 0.00 60 961.0
20260503200743 39 283 3.5 5.2 0.00 0.00 0.00 60 961.1
20260503200243 39 286 3.5 5.2 0.00 0.00 0.00 59 961.2
20260503195743 39 285 2.6 5.2 0.00 0.00 0.00 60 961.2
20260503195243 39 267 2.6 5.2 0.00 0.00 0.00 60 961.3
20260503194743 40 284 2.6 5.2 0.00 0.00 0.00 60 961.5
20260503194243 40 270 2.6 5.2 0.00 0.00 0.00 58 961.5
20260503193713 40 317 2.6 7.0 0.00 0.00 0.00 57 961.5
20260503193213 40 315 2.6 7.0 0.00 0.00 0.00 58 961.5
20260503192713 40 323 2.6 7.8 0.00 0.00 0.00 57 961.5
20260503192143 40 295 2.6 7.8 0.00 0.00 0.00 57 961.5
20260503191643 40 306 3.5 7.8 0.00 0.00 0.00 56 961.4
20260503191143 40 344 2.6 7.0 0.00 0.00 0.00 56 961.6
20260503190643 40 26 2.6 7.0 0.00 0.00 0.00 56 961.6
20260503190143 41 14 2.6 6.1 0.00 0.00 0.00 55 962.0
20260503185643 41 278 3.5 6.1 0.00 0.00 0.00 55 962.0
20260503185143 41 293 2.6 6.1 0.00 0.00 0.00 55 962.0
20260503184643 41 15 2.6 6.1 0.00 0.00 0.00 54 962.0
20260503184143 42 255 2.6 6.1 0.00 0.00 0.00 53 962.0
20260503183643 42 22 1.7 6.1 0.00 0.00 0.00 51 962.0
20260503183143 42 315 2.6 6.1 0.00 0.00 0.00 50 962.0
20260503182643 42 45 2.6 6.1 0.00 0.00 0.00 50 962.0
20260503182143 42 315 2.6 6.1 0.00 0.00 0.00 49 962.0
20260503181643 42 256 3.5 7.0 0.00 0.00 0.00 50 962.0
20260503181143 42 16 3.5 7.0 0.00 0.00 0.00 48 962.0
20260503180642 42 21 2.6 7.0 0.00 0.00 0.00 50 962.0
20260503180142 42 277 2.6 7.0 0.00 0.00 0.00 50 962.0
20260503175612 42 295 4.3 8.7 0.00 0.00 0.00 50 962.2
20260503175112 42 317 4.3 8.7 0.00 0.00 0.00 51 962.0
20260503174612 42 20 4.3 8.7 0.00 0.00 0.00 49 962.2
20260503174113 42 45 3.5 7.8 0.00 0.00 0.00 48 962.3
20260503173542 43 69 3.5 7.0 0.00 0.00 0.00 49 962.4
20260503173042 43 28 3.5 7.0 0.00 0.00 0.00 48 962.4
20260503172542 43 299 2.6 5.2 0.00 0.00 0.00 47 962.5
20260503172042 42 55 2.6 5.2 0.00 0.00 0.00 49 962.5
20260503171512 43 8 2.6 5.2 0.00 0.00 0.00 47 962.5
20260503171012 43 293 1.7 5.2 0.00 0.00 0.00 45 962.5
20260503170442 44 228 1.7 4.3 0.00 0.00 0.00 44 963.0
20260503150841 47 3 1.7 3.5 0.00 0.00 0.00 45 964.0
20260503150341 47 119 1.7 3.5 0.00 0.00 0.00 44 964.0
20260503140241 46 88 3.5 10.4 0.00 0.00 0.00 43 965.0
20260503131041 47 17 2.6 7.8 0.00 0.00 0.00 43 965.1
20260503130511 48 92 2.6 7.0 0.00 0.00 0.00 41 965.1
20260503110811 49 186 3.5 7.8 0.00 0.00 0.00 43 965.6
20260503110311 49 122 3.5 7.8 0.00 0.00 0.00 45 966.0
20260503100240 42 90 2.6 9.6 0.00 0.00 0.00 57 966.1
20260503090140 41 127 3.5 11.3 0.00 0.00 0.00 51 966.1
20260503081510 43 165 2.6 8.7 0.00 0.00 0.00 54 966.5
20260503081010 42 220 2.6 8.7 0.00 0.00 0.00 55 966.5
20260503080440 42 114 4.3 10.4 0.00 0.00 0.00 58 966.6
20260503072810 38 191 4.3 11.3 0.00 0.00 0.00 66 966.6
20260503072240 38 119 3.5 11.3 0.00 0.00 0.00 65 967.0
20260503071740 38 99 3.5 13.0 0.00 0.00 0.00 62 967.0
20260503071210 39 184 3.5 13.0 0.00 0.00 0.00 64 966.6
20260503070709 40 78 3.5 11.3 0.00 0.00 0.00 60 966.6
20260503070209 43 134 3.5 11.3 0.00 0.00 0.00 57 966.6
20260503054939 42 121 3.5 13.0 0.00 0.00 0.00 59 966.4
20260503054439 43 105 2.6 9.6 0.00 0.00 0.00 60 966.4
20260503053939 43 183 2.6 13.0 0.00 0.00 0.00 60 966.3
20260503053439 42 103 3.5 13.0 0.00 0.00 0.00 61 966.4
20260503052939 42 87 2.6 11.3 0.00 0.00 0.00 61 966.3
20260503052439 43 155 2.6 11.3 0.00 0.00 0.00 60 966.4
20260503051939 43 21 2.6 8.7 0.00 0.00 0.00 59 966.5
20260503051409 43 71 2.6 8.7 0.00 0.00 0.00 61 966.5
20260503050909 43 47 2.6 11.3 0.00 0.00 0.00 60 966.5
20260503050409 42 122 1.7 11.3 0.00 0.00 0.00 61 966.4
20260503045909 42 128 2.6 11.3 0.00 0.00 0.00 61 966.3
20260503045409 41 96 2.6 11.3 0.00 0.00 0.00 64 966.3
20260503044839 40 201 2.6 11.3 0.00 0.00 0.00 65 966.2
20260503044339 40 171 2.6 8.7 0.00 0.00 0.00 65 966.2
20260503043839 39 182 2.6 7.8 0.00 0.00 0.00 67 966.1
20260503043339 39 114 3.5 11.3 0.00 0.00 0.00 66 966.1
20260503042839 38 58 3.5 11.3 0.00 0.00 0.00 68 966.2
20260503042339 39 159 3.5 9.6 0.00 0.00 0.00 67 966.1
20260503041839 38 123 2.6 9.6 0.00 0.00 0.00 67 966.2
20260503041309 38 220 2.6 8.7 0.00 0.00 0.00 67 966.1
20260503040809 38 50 2.6 8.7 0.00 0.00 0.00 68 966.1
20260503040309 37 170 2.6 9.6 0.00 0.00 0.00 70 966.0
20260503035809 37 161 3.5 9.6 0.00 0.00 0.00 72 966.2
20260503035239 36 178 4.3 9.6 0.00 0.00 0.00 74 966.1
20260503034738 35 188 4.3 7.8 0.00 0.00 0.00 73 966.3
20260503034238 35 192 3.5 6.1 0.00 0.00 0.00 73 966.3
20260503033738 35 193 2.6 5.2 0.00 0.00 0.00 72 966.2
20260503033238 35 207 1.7 5.2 0.00 0.00 0.00 73 966.2
20260503032738 35 204 1.7 6.1 0.00 0.00 0.00 72 966.2
20260503032238 35 60 1.7 7.8 0.00 0.00 0.00 73 966.4
20260503031738 34 79 3.5 7.8 0.00 0.00 0.00 76 966.2
20260503031209 33 191 3.5 7.0 0.00 0.00 0.00 78 966.2
20260503030708 33 160 3.5 7.0 0.00 0.00 0.00 79 966.1
20260503030208 32 198 2.6 5.2 0.00 0.00 0.00 81 966.2
20260503025638 32 186 1.7 4.3 0.00 0.00 0.00 81 966.2
20260503025138 31 254 2.6 6.1 0.00 0.00 0.00 82 966.3
20260503024638 31 216 3.5 7.8 0.00 0.00 0.00 82 966.2
20260503024138 31 190 3.5 7.8 0.00 0.00 0.00 83 966.2
20260503023638 31 174 2.6 7.8 0.00 0.00 0.00 83 966.0